Total_Precipitation_Accumulation
1.13 1.25 1.34 1.65 1.92 2.08 2.26 2.43 2.57 2.69 2.96 3.17 3.18 3.08 2.94 2.69 2.57 2.53 2.45 2.35 2.30 2.41 2.41 2.20 2.04 2.05 1.96 1.83 1.81 1.82 1.89 1.85 1.75 1.80 1.73 1.57 1.40 1.28 1.16 1.08 1.05 1.00 0.97
1.02 1.15 1.23 1.39 1.61 1.85 2.08 2.32 2.46 2.59 2.64 2.72 2.96 3.13 3.19 3.02 2.74 2.57 2.48 2.38 2.30 2.34 2.38 2.40 2.30 2.18 2.09 2.01 2.01 2.04 2.07 2.10 2.09 2.09 2.10 1.98 1.82 1.47 1.22 1.16 1.13 1.08 1.05
0.90 1.01 1.14 1.36 1.46 1.61 1.87 2.16 2.33 2.48 2.55 2.61 2.90 3.14 3.31 3.14 2.80 2.46 2.32 2.34 2.33 2.33 2.26 2.29 2.38 2.33 2.25 2.11 2.06 2.06 2.11 2.15 2.15 2.16 2.30 2.12 1.79 1.47 1.28 1.13 1.07 1.08 1.10
0.77 0.83 0.96 1.14 1.28 1.43 1.64 1.82 2.04 2.22 2.43 2.56 2.67 2.74 2.87 2.88 2.61 2.46 2.36 2.40 2.43 2.40 2.35 2.30 2.32 2.32 2.25 2.12 2.09 2.04 2.04 2.11 2.14 2.13 2.07 1.98 1.67 1.52 1.40 1.23 1.11 1.10 1.12
0.76 0.77 0.92 1.11 1.19 1.29 1.55 1.71 1.80 2.00 2.22 2.40 2.47 2.63 2.65 2.69 2.75 2.70 2.57 2.47 2.45 2.40 2.33 2.29 2.29 2.23 2.16 2.12 2.17 2.12 2.10 2.12 2.11 2.04 1.99 2.01 1.82 1.58 1.52 1.37 1.20 1.20 1.16
0.81 0.87 1.00 1.11 1.15 1.23 1.40 1.62 1.63 1.73 1.91 2.19 2.41 2.47 2.44 2.50 2.54 2.53 2.47 2.44 2.43 2.39 2.30 2.19 2.15 2.13 2.13 2.13 2.17 2.23 2.18 2.17 2.19 2.13 2.02 2.04 2.05 1.84 1.74 1.63 1.39 1.34 1.27
0.76 0.86 0.99 1.01 1.06 1.17 1.28 1.43 1.53 1.61 1.72 1.90 2.13 2.31 2.41 2.43 2.44 2.45 2.41 2.31 2.21 2.13 2.10 2.11 2.05 2.00 1.95 2.00 2.07 2.17 2.19 2.14 2.15 2.14 2.10 2.05 2.00 1.88 1.86 1.87 1.71 1.59 1.49
0.66 0.70 0.84 0.92 0.99 1.10 1.17 1.20 1.26 1.32 1.39 1.50 1.65 1.87 2.15 2.28 2.22 2.20 2.16 2.12 2.03 2.00 2.00 2.00 2.00 1.99 1.97 1.94 1.99 2.05 2.10 2.10 2.04 1.96 1.96 1.95 1.91 1.94 1.96 1.97 2.03 2.01 1.79
0.70 0.69 0.76 0.82 0.87 1.00 1.12 1.11 1.10 1.15 1.23 1.27 1.37 1.50 1.75 1.92 1.96 1.98 1.93 1.83 1.79 1.83 1.85 1.85 1.87 1.90 1.93 1.92 1.95 1.99 1.98 1.98 1.96 1.93 1.87 1.81 1.73 1.76 1.80 1.83 1.95 2.16 2.11
0.71 0.67 0.72 0.77 0.78 0.86 1.00 1.04 1.05 1.08 1.20 1.24 1.28 1.36 1.47 1.57 1.72 1.80 1.69 1.63 1.60 1.63 1.66 1.67 1.67 1.70 1.74 1.78 1.84 1.86 1.83 1.81 1.78 1.79 1.82 1.79 1.70 1.70 1.76 1.85 1.91 2.00 2.09
0.72 0.75 0.76 0.79 0.83 0.88 0.93 0.95 1.01 1.07 1.18 1.21 1.18 1.19 1.25 1.29 1.38 1.47 1.51 1.45 1.46 1.45 1.45 1.45 1.47 1.46 1.50 1.57 1.66 1.68 1.70 1.74 1.70 1.68 1.72 1.73 1.71 1.73 1.76 1.87 1.96 2.02 2.11
0.66 0.74 0.75 0.76 0.85 0.90 0.89 0.86 0.91 0.97 1.09 1.12 1.07 1.06 1.10 1.15 1.20 1.24 1.32 1.33 1.33 1.35 1.37 1.34 1.33 1.31 1.30 1.35 1.43 1.48 1.53 1.57 1.60 1.61 1.65 1.68 1.70 1.75 1.77 1.88 1.95 1.95 1.94
0.51 0.58 0.63 0.65 0.69 0.72 0.74 0.81 0.81 0.79 0.86 0.89 0.86 0.86 0.87 0.93 1.02 1.06 1.08 1.13 1.17 1.22 1.27 1.29 1.25 1.24 1.23 1.27 1.31 1.31 1.35 1.39 1.42 1.47 1.53 1.53 1.60 1.67 1.68 1.76 1.84 1.84 1.83
0.42 0.49 0.58 0.56 0.58 0.63 0.64 0.71 0.71 0.69 0.75 0.77 0.76 0.77 0.77 0.79 0.84 0.89 0.89 0.91 0.96 1.04 1.12 1.21 1.19 1.14 1.16 1.22 1.26 1.31 1.32 1.30 1.30 1.32 1.39 1.45 1.50 1.54 1.58 1.68 1.73 1.75 1.79
0.37 0.44 0.54 0.58 0.57 0.61 0.64 0.64 0.70 0.74 0.80 0.81 0.81 0.78 0.75 0.75 0.78 0.82 0.83 0.81 0.81 0.82 0.87 0.97 1.05 1.08 1.09 1.15 1.20 1.26 1.31 1.31 1.30 1.30 1.34 1.43 1.61 1.67 1.64 1.66 1.65 1.68 1.76
0.32 0.36 0.46 0.62 0.57 0.62 0.71 0.72 0.77 0.85 0.87 0.90 0.85 0.81 0.76 0.73 0.71 0.71 0.72 0.72 0.73 0.72 0.76 0.84 0.89 0.96 1.03 1.30 1.36 1.30 1.28 1.33 1.34 1.34 1.30 1.34 1.49 1.51 1.54 1.56 1.57 1.65 1.77
0.29 0.33 0.39 0.56 0.65 0.68 0.78 0.86 0.89 0.94 0.93 0.92 0.86 0.79 0.75 0.72 0.71 0.68 0.67 0.69 0.72 0.74 0.78 0.82 0.88 0.95 1.11 1.37 1.41 1.49 1.38 1.34 1.31 1.29 1.26 1.21 1.17 1.25 1.13 1.23 1.38 1.45 1.50
0.25 0.29 0.35 0.41 0.55 0.60 0.68 0.79 0.87 0.98 0.98 0.96 0.94 0.90 0.87 0.88 0.91 0.90 0.91 0.90 0.87 0.90 0.96 1.00 1.04 1.10 1.22 1.35 1.33 1.39 1.25 1.22 1.18 1.11 1.09 1.05 0.99 0.99 1.04 1.09 1.18 1.12 1.10
0.25 0.26 0.30 0.32 0.39 0.49 0.55 0.65 0.80 0.96 1.08 1.14 1.15 1.15 1.16 1.19 1.21 1.22 1.22 1.21 1.21 1.21 1.19 1.15 1.11 1.10 1.14 1.19 1.19 1.21 1.10 1.09 1.03 0.95 0.94 0.95 0.91 1.04 1.20 1.19 1.13 1.02 1.00
0.28 0.27 0.28 0.30 0.34 0.44 0.53 0.66 0.87 1.05 1.18 1.25 1.28 1.30 1.37 1.42 1.37 1.33 1.29 1.21 1.18 1.19 1.18 1.15 1.11 1.04 1.00 1.03 1.02 1.04 0.97 0.95 0.87 0.82 0.81 0.90 0.92 1.11 1.27 1.22 1.16 1.07 0.89
0.36 0.37 0.38 0.41 0.44 0.50 0.60 0.78 0.92 1.06 1.13 1.16 1.19 1.22 1.19 1.20 1.17 1.13 1.08 1.03 0.99 0.94 0.91 0.88 0.83 0.79 0.81 0.88 0.91 0.96 0.95 0.98 0.94 0.87 0.85 0.86 1.00 1.13 1.23 1.25 1.15 1.10 1.06
0.37 0.45 0.51 0.55 0.56 0.59 0.69 0.78 0.83 0.88 0.88 0.89 0.89 0.89 0.84 0.78 0.77 0.80 0.81 0.79 0.78 0.75 0.71 0.67 0.65 0.62 0.65 0.73 0.79 0.90 1.00 1.05 1.04 0.94 0.88 0.95 1.13 1.22 1.26 1.22 1.17 1.22 1.26
0.22 0.27 0.35 0.41 0.41 0.42 0.47 0.53 0.51 0.50 0.50 0.50 0.54 0.55 0.54 0.52 0.51 0.55 0.59 0.61 0.63 0.64 0.63 0.62 0.62 0.60 0.57 0.62 0.73 0.80 0.93 1.03 0.99 0.93 1.00 1.09 1.16 1.19 1.18 1.20 1.20 1.16 1.10
0.16 0.18 0.20 0.22 0.23 0.24 0.26 0.29 0.28 0.26 0.27 0.32 0.36 0.42 0.46 0.48 0.47 0.49 0.53 0.57 0.60 0.63 0.65 0.65 0.64 0.61 0.57 0.60 0.68 0.78 0.87 0.98 1.00 0.99 1.03 1.07 1.07 1.05 1.06 1.11 1.14 1.11 1.09
0.17 0.19 0.20 0.21 0.22 0.22 0.22 0.23 0.24 0.23 0.24 0.26 0.29 0.34 0.41 0.48 0.50 0.50 0.53 0.59 0.62 0.74 0.89 0.89 0.82 0.83 0.80 0.77 0.94 1.09 1.09 1.12 1.17 1.20 1.14 1.04 0.97 0.97 0.99 0.98 1.01 1.08 1.13
0.21 0.21 0.22 0.25 0.28 0.29 0.31 0.30 0.30 0.29 0.29 0.30 0.31 0.36 0.40 0.45 0.51 0.54 0.55 0.59 0.63 0.70 0.77 0.84 0.89 0.86 0.89 0.95 1.02 1.06 1.12 1.18 1.27 1.33 1.23 1.04 0.94 0.92 0.93 0.96 1.00 1.04 1.08